Regional Weather Roundup
Issued by NWS Spokane, WA

Home | Current Version | Previous Version | Text Only | Print | Product List | Glossary On
Versions: 1 2 3 4 5 6 7 8 9 10 11 12 13 14 15 16 17 18 19 20 21 22 23 24 25 26 27 28 29 30 31 32 33 34 35 36 37 38 39 40 41 42 43 44 45 46 47 48 49 50
000
NZUS01 KOTX 012110
RWROTX
EASTERN WASHINGTON/NORTHERN IDAHO ROUNDUP
NATIONAL WEATHER SERVICE, SPOKANE WA
200 PM PDT SAT AUG 01 2015

Note: "fair" indicated few or no clouds below 12,000 feet with no
significant weather and/or obstructions to visibility.

...NORTHEAST WASHINGTON AND NORTHERN IDAHO PANHANDLE...

CITY           SKY/WX    TMP DP  RH WIND       PRES   REMARKS
SPOKANE INTL   PTSUNNY   94  26   9 SW8       29.94F
SPOKANE DOWNTO SUNNY     95  32  11 W7        29.92F HX  90
COEUR D ALENE  SUNNY     97  37  12 SW13      29.92F HX  92
DEER PARK      SUNNY     95  27   9 W12       29.93F
SANDPOINT      SUNNY     95  34  11 S10G16    29.90F HX  90
BONNERS FERRY  FAIR      91  41  17 CALM      29.91F

...SOUTHEAST WASHINGTON AND SOUTHERN IDAHO PANHANDLE...

CITY           SKY/WX    TMP DP  RH WIND       PRES   REMARKS
WALLA WALLA    SUNNY    100  33   9 SW7       29.89F HX  94
PULLMAN/MOSCOW SUNNY     95  31  10 W10       29.99F
LEWISTON       SUNNY    102  34   9 NW8       29.88F HX  96
LOWELL           N/A    102  45  14 CALM      29.86F HX  98

...COLUMBIA BASIN...

CITY           SKY/WX    TMP DP  RH WIND       PRES   REMARKS
EPHRATA        MOSUNNY  100  39  12 SW9G17    29.87F HAZE    HX  95
MOSES LAKE     MOSUNNY   99  31   9 S6        29.88F HAZE    HX  93
TRI CITIES     SUNNY     99  38  12 S5        29.84F HX  94
HERMISTON      SUNNY     99  37  11 VRB5      29.85F HX  94
PENDLETON      SUNNY     98  24   7 W5        29.90F HX  91

...EAST SLOPES CASCADES...

CITY           SKY/WX    TMP DP  RH WIND       PRES   REMARKS
THE DALLES     MOSUNNY  102  33   9 NW6       29.81F HX  96
YAKIMA         SUNNY    102  26   7 E7        29.87F HX  95
ELLENSBURG     SUNNY    103  25   6 VRB3      29.90F HX  95
WENATCHEE      SUNNY    101  22   6 E5        29.86F HX  94
OMAK           MOSUNNY  100  25   7 SW10      29.87F HX  93

...SOUTHERN BRITISH COLUMBIA...

CITY           SKY/WX    TMP DP  RH WIND       PRES   REMARKS
PENTICTON      MOSUNNY   93  43  17 N9        29.87F
CRANBROOK      SUNNY     91  32  12 S5        29.92F

...WESTERN MONTANA...

CITY           SKY/WX    TMP DP  RH WIND       PRES   REMARKS
MISSOULA       SUNNY     92  35  13 SW6       29.97F

...NEIGHBORING CITIES...

CITY           SKY/WX    TMP DP  RH WIND       PRES   REMARKS
SEATTLE        MOSUNNY   88  50  27 NW7       29.99F
CALGARY        MOSUNNY   79  54  41 NE13G24   29.99R



USA.gov is the U.S. government's official web portal to all federal, state and local government web resources and services.